星链-36346(STARLINK-36346)

导读

STARLINK-36346是美国太空探索技术公司(SpaceX)星链(Starlink)互联网卫星星座中的一颗卫星,于2026年2月15日由美国发射升空,属于星链项目低轨卫星部署计划的组成部分,将为全球范围提供高速低延迟的卫星互联网服务,补充和完善星链星座的全球覆盖与服务能力。

基本信息
目录编号:
67818
目录名称:
STARLINK-36346
国际标识:
2026-032X
轨道中心:
EARTH
卫星名称:
星链-36346
卫星全名:
星链-36346(STARLINK-36346)
卫星状态:
在轨 (已飞行118 天)
发射日期:
2026-02-15 UTC
国别 :
美国 (US)
星等 :
--
轨道信息
数据来源 国际轨道数据
星历时间: 2026-06-13T02:02:21+0800
10小时前
查看轨道信息
半长轴: 6843.728km
偏心率: 0.000114
轨道倾角: 97.286°
近地点辐角 56.835°
升交点赤经 351.650°
平近点角 303.300°
近地点: 464.81km
远地点: 466.372km
周期: 93.907分钟
每日圈数: 15.33429
详细信息
固有亮度:
5
最大亮度:
2.5
卫星平台:
Starlink V1.0
覆盖范围:
全球
运营商:
太空探索技术公司
运营商所在国:
美国
制造商(研发单位):
太空探索技术公司
制造商所在国:
美国
使用方式:
暂无
卫星简介
Starlink 计划是 SpaceX 推出的全球卫星互联网项目,通过发射低轨道卫星,为全球尤其是偏远地区提供高速、低延迟的互联网服务。自 2019 年起,Starlink 已部署数千颗卫星,旨在缩小全球数字鸿沟,推动互联网普及。该项目还为军事、航空等行业提供通信支持,带来广泛经济效益。
2D轨道图
3D轨道图
轨道高度分析图
轨道倾角分析图
轨道综合分析图
查看轨道综合分析图